User: anonymous   Login
Location: NJAA Observatory
(40.6819°N, 74.8979°W)
Time: 15:30:25
(UTC-04:00)
Language:

ALOS - Orbit

View from above orbital plane
View from above orbital plane
View from above satellite
View from above satellite

Ground track
Ground track

The orbit data is extracted from the following two-line orbital elements,

1 28931U 06002A   16181.94399668 +.00000089 +00000-0 +26392-4 0  9995
2 28931 097.8839 220.1524 0001777 052.5209 307.6156 14.62205899555986
Epoch (UTC): 29 June 2016 22:39:21
Eccentricity: 0.0001777
inclination: 97.8839°
perigee height: 685 km
apogee height: 687 km
right ascension of ascending node: 220.1524°
argument of perigee: 52.5209°
revolutions per day: 14.62205899
mean anomaly at epoch: 307.6156°
orbit number at epoch: 55598

The dashed part of the orbit path shows where the satellite is in the earth's shadow,  

DLR